Location: Unspecified
(0.0000°N, 0.0000°E)
Time: 16:40:31
(UTC+00:00)

Courier 1B Rocket - Pass Details

Date: 16 December 2018
Orbit: 920 x 1202 km, 28.2° (Epoch: 17 June)

Event Time Altitude Azimuth Distance (km) Brightness Sun altitude
Rises 07:03:24 0° 273° (W) 3,546 7.4 15.5°
Reaches altitude 10° 07:06:45 10° 290° (WNW) 2,614 6.7 16.3°
Maximum altitude 07:11:06 19° 335° (NNW) 2,047 6.4 17.3°
Drops below altitude 10° 07:15:35 10° 19° (NNE) 2,689 7.3 18.3°
Sets 07:19:07 0° 36° (NE) 3,682 8.2 19.1°
